Novato, CA

3:09 AM PST on December 10, 2019 (GMT -0800)
Gnoss

Weather History for KDVO - November, 2019

Change the Weather History Date:

Tuesday, November 12, 2019

  Actual Average (WUND) Record (WUND)
Temperature  
Mean Temperature 56 °F -  
Max Temperature 75 °F - - (-1)
Min Temperature 37 °F - - (-1)
Degree Days  
Heating Degree Days 9    
Growing Degree Days 6 (Base 50)    
Moisture  
Dew Point 44 °F    
Average Humidity 65    
Maximum Humidity 100    
Minimum Humidity 31    
Precipitation  
Precipitation 0.00 in - - ()
Sea Level Pressure  
Sea Level Pressure 30.05 in    
Wind  
Wind Speed 1 mph ()    
Max Wind Speed 7 mph    
Max Gust Speed -    
Visibility 9.7 miles    
Events      
Averages and records for this station are not official NWS values.
T = Trace of Precipitation, MM = Missing Value Source: Averaged Metar Reports

Daily Weather History Graph

Daily Weather History Graph

Search for Another Location

Airport or City:

Astronomy

Nov. 12, 2019 Rise Set
Actual Time 6:47 AM PST 5:00 PM PST
Civil Twilight 6:19 AM PST 5:28 PM PST
Nautical Twilight 5:48 AM PST 6:00 PM PST
Astronomical Twilight 5:17 AM PST 6:31 PM PST
Moon 5:30 PM PST (11/12) 6:45 AM PST (11/12)
Length of Visible Light 11h 08m
Length of Day
10h 12m
Full, 100% of the Moon is Illuminated
Nov 12
Full
Nov 19
Last Quarter
Nov 26
New
Dec 3
First Quarter
Dec 11
Full

Hourly Weather History & Observations

Time (PST) Temp. Windchill Dew Point Humidity Pressure Visibility Wind Dir Wind Speed Gust Speed Precip Events Conditions
12:15 AM 51.8 °F - 42.8 °F 71% 30.07 in 10.0 mi Calm Calm - N/A   Clear
12:35 AM 50.0 °F - 42.8 °F 76% 30.07 in 10.0 mi Calm Calm - N/A   Clear
12:55 AM 48.2 °F - 42.8 °F 82% 30.07 in 10.0 mi NNW 3.5 mph - N/A   Clear
1:15 AM 48.2 °F - 42.8 °F 82% 30.06 in 10.0 mi Calm Calm - N/A   Clear
1:35 AM 48.2 °F - 44.6 °F 87% 30.06 in 10.0 mi Calm Calm - N/A   Clear
1:55 AM 48.2 °F - 42.8 °F 82% 30.06 in 10.0 mi Calm Calm - N/A   Clear
2:15 AM 46.4 °F - 42.8 °F 87% 30.06 in 10.0 mi Calm Calm - N/A   Clear
2:35 AM 44.6 °F - 41.0 °F 87% 30.06 in 10.0 mi Calm Calm - N/A   Clear
2:55 AM 46.4 °F - 42.8 °F 87% 30.06 in 10.0 mi Calm Calm - N/A   Clear
3:15 AM 46.4 °F - 44.6 °F 93% 30.06 in 10.0 mi Calm Calm - N/A   Clear
3:35 AM 46.4 °F - 44.6 °F 93% 30.06 in 10.0 mi Calm Calm - N/A   Clear
3:55 AM 46.4 °F 45.2 °F 44.6 °F 93% 30.06 in 10.0 mi SSW 3.5 mph - N/A   Clear
4:15 AM 46.4 °F - 44.6 °F 93% 30.06 in 10.0 mi Calm Calm - N/A   Clear
4:35 AM 44.6 °F - 42.8 °F 93% 30.06 in 10.0 mi Calm Calm - N/A   Clear
4:55 AM 44.6 °F - 42.8 °F 93% 30.06 in 10.0 mi Calm Calm - N/A   Clear
5:15 AM 44.6 °F - 42.8 °F 93% 30.06 in 10.0 mi Calm Calm - N/A   Clear
5:35 AM 46.4 °F - 42.8 °F 87% 30.06 in 10.0 mi Calm Calm - N/A   Clear
5:55 AM 44.6 °F 43.1 °F 42.8 °F 93% 30.07 in 10.0 mi South 3.5 mph - N/A   Clear
6:15 AM 44.6 °F - 42.8 °F 93% 30.07 in 10.0 mi Calm Calm - N/A   Clear
6:35 AM 37.4 °F - 35.6 °F 93% 30.08 in 1.5 mi Calm Calm - N/A   Clear
6:55 AM 42.8 °F - 42.8 °F 100% 30.08 in 10.0 mi Calm Calm - N/A   Clear
7:15 AM 44.6 °F - 42.8 °F 93% 30.09 in 10.0 mi Calm Calm - N/A   Clear
7:35 AM 46.4 °F - 44.6 °F 93% 30.09 in 10.0 mi Calm Calm - N/A   Clear
7:55 AM 50.0 °F - 44.6 °F 82% 30.10 in 10.0 mi Calm Calm - N/A   Clear
8:15 AM 50.0 °F - 46.4 °F 87% 30.11 in 10.0 mi Calm Calm - N/A   Clear
8:35 AM 53.6 °F - 46.4 °F 77% 30.11 in 10.0 mi Calm Calm - N/A   Clear
8:55 AM 55.4 °F - 46.4 °F 72% 30.11 in 10.0 mi Calm Calm - N/A   Clear
9:15 AM 57.2 °F - 46.4 °F 67% 30.11 in 10.0 mi Calm Calm - N/A   Clear
9:35 AM 60.8 °F - 48.2 °F 63% 30.11 in 10.0 mi Calm Calm - N/A   Clear
9:55 AM 62.6 °F - 48.2 °F 59% 30.11 in 10.0 mi SE 3.5 mph - N/A   Clear
10:15 AM 66.2 °F - 48.2 °F 52% 30.10 in 10.0 mi SSW 5.8 mph - N/A   Clear
10:35 AM 66.2 °F - 48.2 °F 52% 30.10 in 10.0 mi South 6.9 mph - N/A   Clear
10:55 AM 68.0 °F - 46.4 °F 46% 30.10 in 10.0 mi SSW 4.6 mph - N/A   Clear
11:15 AM 69.8 °F - 44.6 °F 40% 30.09 in 10.0 mi SSE 5.8 mph - N/A   Clear
11:35 AM 69.8 °F - 44.6 °F 40% 30.09 in 10.0 mi SSE 4.6 mph - N/A   Clear
11:55 AM 71.6 °F - 44.6 °F 38% 30.08 in 10.0 mi SE 4.6 mph - N/A   Clear
12:15 PM 73.4 °F - 44.6 °F 36% 30.07 in 10.0 mi Calm Calm - N/A   Clear
12:35 PM 73.4 °F - 44.6 °F 36% 30.07 in 5.0 mi Calm Calm - N/A   Haze
12:55 PM 73.4 °F - 44.6 °F 36% 30.06 in 10.0 mi SE 3.5 mph - N/A   Clear
1:15 PM 75.2 °F - 44.6 °F 34% 30.05 in 9.0 mi ESE 5.8 mph - N/A   Clear
1:35 PM 75.2 °F - 44.6 °F 34% 30.04 in 10.0 mi Variable 4.6 mph - N/A   Clear
1:55 PM 75.2 °F - 42.8 °F 31% 30.03 in 10.0 mi Calm Calm - N/A   Clear
2:15 PM 75.2 °F - 42.8 °F 31% 30.03 in 10.0 mi ESE 6.9 mph - N/A   Clear
2:55 PM 75.2 °F - 42.8 °F 31% 30.02 in 10.0 mi SE 5.8 mph - N/A   Clear
3:15 PM 75.2 °F - 42.8 °F 31% 30.02 in 10.0 mi SE 5.8 mph - N/A   Clear
3:35 PM 75.2 °F - 42.8 °F 31% 30.01 in 9.0 mi SE 5.8 mph - N/A   Clear
3:55 PM 75.2 °F - 42.8 °F 31% 30.01 in 10.0 mi South 4.6 mph - N/A   Clear
4:15 PM 75.2 °F - 42.8 °F 31% 30.00 in 10.0 mi South 5.8 mph - N/A   Clear
4:35 PM 73.4 °F - 42.8 °F 33% 30.00 in 10.0 mi SSE 4.6 mph - N/A   Clear
4:55 PM 68.0 °F - 42.8 °F 40% 30.00 in 10.0 mi SW 3.5 mph - N/A   Clear
5:15 PM 66.2 °F - 42.8 °F 43% 30.00 in 10.0 mi SSW 3.5 mph - N/A   Clear
5:35 PM 64.4 °F - 44.6 °F 49% 30.00 in 10.0 mi SSW 3.5 mph - N/A   Clear
5:55 PM 59.0 °F - 42.8 °F 55% 30.00 in 10.0 mi Calm Calm - N/A   Clear
6:15 PM 57.2 °F - 41.0 °F 55% 30.00 in 10.0 mi Calm Calm - N/A   Clear
6:35 PM 57.2 °F - 41.0 °F 55% 30.00 in 10.0 mi North - - N/A   Clear
6:55 PM 55.4 °F - 41.0 °F 58% 30.00 in 10.0 mi North - - N/A   Clear
7:15 PM 55.4 °F - 41.0 °F 58% 30.00 in 10.0 mi North - - N/A   Clear
7:35 PM 53.6 °F - 41.0 °F 62% 30.01 in 10.0 mi Calm Calm - N/A   Clear
7:55 PM 55.4 °F - 42.8 °F 63% 30.01 in 10.0 mi NNW 4.6 mph - N/A   Clear
8:15 PM 53.6 °F - 41.0 °F 62% 30.01 in 10.0 mi Calm Calm - N/A   Clear
8:35 PM 53.6 °F - 42.8 °F 67% 30.01 in 10.0 mi Calm Calm - N/A   Clear
8:55 PM 53.6 °F - 41.0 °F 62% 30.01 in 10.0 mi Calm Calm - N/A   Clear
9:15 PM 53.6 °F - 44.6 °F 72% 30.01 in 10.0 mi Calm Calm - N/A   Clear
9:35 PM 53.6 °F - 42.8 °F 67% 30.02 in 10.0 mi Calm Calm - N/A   Clear
9:55 PM 53.6 °F - 44.6 °F 72% 30.02 in 10.0 mi Calm Calm - N/A   Clear
10:15 PM 51.8 °F - 42.8 °F 71% 30.03 in 10.0 mi Calm Calm - N/A   Clear
10:35 PM 51.8 °F - 42.8 °F 71% 30.02 in 10.0 mi Calm Calm - N/A   Clear
10:55 PM 48.2 °F - 42.8 °F 82% 30.03 in 10.0 mi Calm Calm - N/A   Clear
11:15 PM 48.2 °F - 42.8 °F 82% 30.03 in 10.0 mi NNW 5.8 mph - N/A   Clear
11:35 PM 50.0 °F - 42.8 °F 76% 30.02 in 5.0 mi Calm Calm - N/A   Haze
11:55 PM 50.0 °F - 44.6 °F 82% 30.02 in 10.0 mi Calm Calm - N/A   Clear